Location: Palomar Mountain Lodge
(33.3110°N, 116.8495°W)
Time: 14:37:44
(UTC-07:00)

Cosmos 1953 Rocket - Pass Details

Date: 14 June 2018
Orbit: 604 x 636 km, 82.5° (Epoch: 20 August)

Event Time Altitude Azimuth Distance (km) Brightness Sun altitude
Exits shadow 21:59:40 42° 88° (E) 865 4.0 -20.7°
Drops below altitude 10° 22:03:39 10° 22° (NNE) 1,963 6.5 -21.2°
Sets 22:05:58 0° 15° (NNE) 2,876 7.5 -21.5°
